This demonstration page uses our WeatherBlox Daily Observations layout. Learn more.

Left ArrowRight Arrow

Hourly Observations for November 1, 2022

Temp ( °F °C ) Dew Point ( °F °C ) Humidity (%) Winds ( mph kmh ) Pressure ( in mb ) Visibility ( mi km ) Precip ( " mm )
12:55 am 00:55 Clear 47 8.1 28 -2 49 49 VRB 2 4 29.98 1015 10 16 0.00 0.00
1:55 am 01:55 Clear 46 8 28 -2.1 49 49 ESE 3 6 29.99 1016 10 16 0.00 0.00
2:55 am 02:55 Clear 45 7.4 29 -1.8 52 52 ESE 3 6 30.00 1016 10 16 0.00 0.00
3:55 am 03:55 Clear 46 7.7 29 -1.8 51 51 VRB 1 2 29.99 1016 10 16 0.00 0.00
4:55 am 04:55 Clear 46 7.5 29 -1.7 52 52 VRB 2 4 29.99 1016 10 16 0.00 0.00
5:55 am 05:55 Clear 44 6.8 29 -1.6 55 55 E 3 6 30.00 1016 10 16 0.00 0.00
6:55 am 06:55 Clear 44 6.7 29 -1.5 56 56 Calm 30.03 1017 10 16 0.00 0.00
7:55 am 07:55 Clear 43 5.9 30 -1.3 60 60 ESE 3 6 30.04 1017 10 16 0.00 0.00
8:55 am 08:55 Sunny 46 7.6 31 -0.4 57 57 ESE 3 6 30.05 1018 10 16 0.00 0.00
9:55 am 09:55 Sunny 51 10.7 35 1.5 53 53 SE 5 7 30.07 1018 10 16 0.00 0.00
10:55 am 10:55 Sunny 59 15.1 37 2.6 43 43 S 6 9 30.07 1018 10 16 0.00 0.00
11:55 am 11:55 Sunny 66 18.7 39 4.1 38 38 S 9 15 30.05 1018 10 16 0.00 0.00
12:55 pm 12:55 Sunny 71 21.4 41 4.9 34 34 SSE 10 17 30.03 1017 10 16 0.00 0.00
1:55 pm 13:55 Sunny 75 24.1 42 5.4 30 30 S 12 19 30.01 1016 10 16 0.00 0.00
2:55 pm 14:55 Sunny 78 25.5 42 5.6 28 28 S 12 19 29.98 1015 10 16 0.00 0.00
3:55 pm 15:55 Sunny 79 26.3 42 5.8 27 27 S 15 24 29.97 1015 10 16 0.00 0.00
4:55 pm 16:55 Sunny 79 26.1 41 5.1 26 26 SSW 16 26 29.93 1014 10 16 0.00 0.00
5:55 pm 17:55 Sunny 76 24.4 42 5.7 30 30 S 12 19 29.99 1016 10 16 0.00 0.00
6:55 pm 18:55 Clear 70 21.3 43 6 37 37 S 5 7 30.01 1016 10 16 0.00 0.00
7:55 pm 19:55 Clear 64 17.7 42 5.6 45 45 ESE 3 6 30.03 1017 10 16 0.00 0.00
8:55 pm 20:55 Clear 61 15.9 41 4.9 48 48 SE 3 6 30.04 1017 10 16 0.00 0.00
9:55 pm 21:55 Clear 62 16.8 40 4.5 44 44 S 6 9 30.05 1018 10 16 0.00 0.00
10:55 pm 22:55 Clear 59 15.1 40 4.7 50 50 SE 3 6 30.07 1018 10 16 0.00 0.00
11:55 pm 23:55 Clear 64 17.8 39 4 40 40 S 9 15 30.07 1018 10 16 0.00 0.00

Powered by AerisWeather